Showing default

OPS 9327 (IDSCS 14), 2654

Orbit data source: Space-Track

OPS 9327 (IDSCS 14), 2654 is a payload satellite owned by USAF SSD (US) in GEO that was launched on Wed, 18 Jan 1967 UTC via a TITAN IIIC launch vehicle from the Air Force Eastern Test Range (AFETR). Payload-class satellites include a variety of spacecraft equipped with specific instruments for various scientific and technological missions. These include communications satellites like Starlink; space stations such as the ISS; scientific satellites like the Hubble; Earth observation satellites from companies like Planet Labs, Umbra, and HawkEye 360; GPS; miniature CubeSats for education and research; and military/defense satellites.

Loading next visibility...
Identifier
2654, 1967-003G
Orbit
GEO
Country
Flag of USUS
Related business
Manufacturer
Philco-Ford WDL
Mission
Non-operational spacecraft
Bus & Motor
IDCSP, Unknown motor
Mass
45 kg wet, 45 kg dry
Launch date (UTC)
1967-01-18 (60 years ago)
Launch vehicle
TITAN IIIC
Launch site
Air Force Eastern Test Range (AFETR)
Object type
Payload
Rocket body
Debris
Shape & HBR
ICO POLY, 0.5 m
Radar Cross Section
Large (>1 m²)

Expand to show TLE details & history
Last TLE update: 8 hours ago

TLE from 8 hours ago
0 OPS 9327 (IDSCS 14)
1 02654U 67003G   26207.57029123 -.00000068  00000-0  00000-0 0  9994
2 02654   8.2326  46.7076 0057223  51.6281 240.1065  1.07510821139895
Epoch: 2026-07-26T13:41Z
TLE epoch observation values (Epoch: 2026-07-26T13:41:13.162Z)
Latitude
-7.69958°
Longitude
-171.49071°
Altitude
33,989.631 km
Speed
3.138 km/s
True Right ascension
22h 32m 19s
True Declination
-7° 41' 30"
Sunlit
Object was in daylight at epoch
Visualization orbit readout
Latitude
Unknown
Longitude
Unknown
Altitude
Unknown
Speed
Unknown
Apparent Right ascension
Unknown
Apparent Declination
Unknown
Sunlit
N/A
Visualization observer readout
Local Sidereal Time
10:54:38
Azimuth
Unknown
Elevation
Unknown
Doppler factor
Unknown
Orbital elements
Apogee altitude
34,103.386 km
Perigee altitude
33,642.727 km
Semi-major axis
40,251.194 km
Eccentricity
0.00572
Inclination
8.2326°
RAAN
46.7076°
Arg. of periapsis
51.6281°
True anomaly
239.54004°
Mean anomaly
240.1065°
Eccentric anomaly
239.82307°
Mean motion
0.26877 °/min
Orbital period
1,339.45 mins
BSTAR
0
Loading maneuver chart data...
Computing Atmospheric mass density...
Loading historical data...
Loading historical data...
Loading historical data...
Loading historical data...
Loading historical data...
Loading historical data...
Loading historical data...

Documentation

Showing up to 5 results
|